Location: Santa Barbara
(34.4500°N, 119.7700°W)
Time: 07:05:21
(UTC-07:00)

OTV 5 (USA 277) - Visible Passes

Search period start: 16 October 2019 00:00
Search period end: 26 October 2019 00:00
Orbit: 310 x 324 km, 54.5° (Epoch: 08 October)

Date Brightness Start Highest point End Pass type
(mag) Time Alt. Az. Time Alt. Az. Time Alt. Az.
17 Oct ? 06:29:35 10° N 06:31:12 14° NE 06:32:49 10° ENE visible
20 Oct ? 05:39:44 18° N 05:40:41 22° NE 05:42:55 10° E visible
21 Oct ? 05:54:32 41° NNW 05:55:19 74° NE 05:58:01 10° SE visible
22 Oct ? 06:09:28 26° WSW 06:09:47 27° SW 06:12:09 10° S visible
25 Oct ? 19:59:27 10° SW 20:00:05 16° SW 20:00:05 16° SW visible
